This is the latest recevied weather packets stored in our database for station/object KB1FFS. If no packets are shown the sender has not sent any weather packets the latest 10 day(s).
| Time | Temp. | Humidity | Pressure | Rain* | Wind** | Luminosity | Snow |
|---|---|---|---|---|---|---|---|
| 1788022161 | 36.67° C | 39% | 1018.9 hPa | 0 mm | - | 677 W/m² | - |
| 1788021860 | 37.22° C | 40% | 1018.9 hPa | 0 mm | - | 667 W/m² | - |
| 1788021559 | 36.67° C | 40% | 1019 hPa | 0 mm | - | 661 W/m² | - |
| 1788021258 | 36.11° C | 41% | 1019 hPa | 0 mm | - | 654 W/m² | - |
| 1788020953 | 36.67° C | 39% | 1019.1 hPa | 0 mm | - | 640 W/m² | - |
| 1788020654 | 36.11° C | 44% | 1018.9 hPa | 0 mm | - | 636 W/m² | - |
| 1788020349 | 35.56° C | 44% | 1018.9 hPa | 0 mm | - | 633 W/m² | - |
| 1788020046 | 35.56° C | 44% | 1019.1 hPa | 0 mm | - | 606 W/m² | - |
| 1788019746 | 35° C | 44% | 1019.1 hPa | 0 mm | - | 594 W/m² | - |
| 1788019445 | 35.56° C | 44% | 1019.1 hPa | 0 mm | - | 580 W/m² | - |
| 1788019143 | 35° C | 46% | 1019.2 hPa | 0 mm | - | 566 W/m² | - |
| 1788018843 | 35° C | 45% | 1018.8 hPa | 0 mm | - | 554 W/m² | - |
| 1788018538 | 34.44° C | 47% | 1019 hPa | 0 mm | - | 542 W/m² | - |
| 1788018236 | 33.89° C | 48% | 1019.2 hPa | 0 mm | - | 523 W/m² | - |
| 1788017933 | 33.89° C | 49% | 1018.9 hPa | 0 mm | - | 506 W/m² | - |
| 1788017629 | 33.89° C | 51% | 1019.2 hPa | 0 mm | - | 486 W/m² | - |
| 1788017326 | 32.78° C | 49% | 1019.2 hPa | 0 mm | - | 467 W/m² | - |
| 1788017022 | 33.33° C | 51% | 1019 hPa | 0 mm | - | 439 W/m² | - |
| 1788016721 | 33.33° C | 51% | 1019.2 hPa | 0 mm | - | 433 W/m² | - |
| 1788016420 | 32.78° C | 53% | 1019.1 hPa | 0 mm | - | 416 W/m² | - |
| 1788016119 | 32.22° C | 53% | 1019.1 hPa | 0 mm | - | 398 W/m² | - |
| 1788015818 | 31.67° C | 53% | 1019.2 hPa | 0 mm | - | 381 W/m² | - |
| 1788015513 | 31.67° C | 55% | 1019.3 hPa | 0 mm | - | 362 W/m² | - |
| 1788015208 | 31.67° C | 58% | 1019.3 hPa | 0 mm | - | 344 W/m² | - |
| 1788014907 | 31.11° C | 56% | 1019.3 hPa | 0 mm | - | 325 W/m² | - |
* Rain latest hour (hover to see other rain measurements)
** Current wind speed in m/s (hover to see current wind gust speed)